TDRS 3 1 19548U 88091B 21017.37151495 -.00000302 00000-0 00000-0 0 9995 2 19548 14.0566 355.5544 0039648 321.9095 244.4143 1.00269243105567 HST 1 20580U 90037B 21017.59662416 .00000496 00000-0 19107-4 0 9995 2 20580 28.4711 343.1776 0002523 233.6918 289.6457 15.09536679488445 TDRS 5 1 21639U 91054B 21017.78084194 .00000082 00000-0 00000+0 0 9991 2 21639 14.2514 8.8570 0025128 358.0877 223.9595 1.00279934107888 TDRS 6 1 22314U 93003B 21017.42942740 -.00000299 00000-0 00000-0 0 9991 2 22314 14.0762 12.0337 0005511 63.7950 150.0037 1.00270467102581 TDRS 7 1 23613U 95035B 21017.48221297 -.00000206 00000-0 00000-0 0 9992 2 23613 14.1463 2.7144 0027451 29.9906 342.8852 1.00271335 93431 ISS (ZARYA) 1 25544U 98067A 21017.90543098 .00000437 00000-0 15913-4 0 9996 2 25544 51.6468 6.0348 0000298 263.4064 181.3073 15.49297609265308 LANDSAT 7 1 25682U 99020A 21017.78963791 .00000037 00000-0 17916-4 0 9992 2 25682 98.0552 79.8231 0000969 87.1544 272.9762 14.57187757157456 TERRA 1 25994U 99068A 21017.84342137 .00000062 00000-0 23812-4 0 9992 2 25994 98.1930 94.9138 0001315 98.9864 326.2178 14.57120700121537 TDRS 8 1 26388U 00034A 21017.56924578 -.00000238 00000-0 00000-0 0 9995 2 26388 9.5616 46.0808 0019237 314.4957 50.6369 1.00279105 75362 EO 1 1 26619U 00075A 21017.85914370 .00000019 00000-0 12091-4 0 9991 2 26619 97.8495 2.8923 0008582 269.2309 90.7911 14.64572182 75353 TIMED 1 26998U 01055B 21017.56907641 .00000083 00000-0 13063-4 0 9992 2 26998 74.0709 226.9357 0002233 257.4307 102.6624 14.88259617 36297 TDRS 9 1 27389U 02011A 21017.50348639 -.00000291 00000-0 00000-0 0 9995 2 27389 7.9350 65.4883 0027340 277.8766 252.5778 1.00278999 70624 AQUA 1 27424U 02022A 21017.86334757 .00000083 00000-0 28526-4 0 9997 2 27424 98.2151 321.3548 0002408 61.6230 4.4877 14.57116530995146 TDRS 10 1 27566U 02055A 21017.57717319 .00000086 00000-0 00000-0 0 9993 2 27566 7.2789 52.6253 0009548 276.5513 184.8120 1.00265007 66411 SORCE 1 27651U 03004A 21017.84404714 .00000053 00000-0 19648-4 0 9991 2 27651 39.9938 214.3623 0020927 86.8926 273.4257 14.89220779976207 AURA 1 28376U 04026A 21017.58168519 .00000093 00000-0 30605-4 0 9992 2 28376 98.2156 323.2380 0001202 71.4651 288.6678 14.57109350878103 SWIFT 1 28485U 04047A 21017.53580906 .00000875 00000-0 29102-4 0 9997 2 28485 20.5578 326.0034 0010869 244.3726 115.5585 15.04830952885789 THEMIS A 1 30580U 07004A 21017.70453078 -.00000532 00000-0 25565-1 0 9997 2 30580 16.1841 29.2004 8399421 70.1782 356.1398 0.87834924 48593 THEMIS D 1 30797U 07004D 21016.54283278 -.00000549 00000-0 00000-0 0 9995 2 30797 13.7684 13.2325 8371928 87.7585 353.9084 0.87837037 23696 THEMIS E 1 30798U 07004E 21017.74000678 -.00000585 00000-0 00000+0 0 9999 2 30798 13.3011 24.6581 8364782 79.3155 354.9554 0.87841345 48526 AIM 1 31304U 07015A 21017.60656572 .00000879 00000-0 52276-4 0 9992 2 31304 97.8838 274.0919 0005133 2.8135 357.3123 15.14043526753087 GLAST 1 33053U 08029A 21017.49172060 .00000525 00000-0 13193-4 0 9996 2 33053 25.5834 82.6868 0012110 326.5499 33.4271 15.11444854695663 WISE 1 36119U 09071A 21017.49102727 .00000764 00000-0 28400-4 0 9995 2 36119 97.3040 56.6241 0002608 22.5401 337.5954 15.30535731616539 TDRS 11 1 39070U 13004A 21017.78945513 .00000081 00000-0 00000+0 0 9998 2 39070 3.5301 335.0197 0004359 24.2084 227.9786 1.00274574 29161 TDRS 12 1 39504U 14004A 21017.67255878 -.00000269 00000-0 00000+0 0 9996 2 39504 4.3945 340.2388 0001975 314.6546 23.5145 1.00276963 25626 GPM 1 39574U 14009C 21017.79375588 .00002877 00000-0 45716-4 0 9996 2 39574 65.0053 142.5940 0010651 284.7649 75.2317 15.55745837391409 MMS 1 1 40482U 15011A 21012.29541450 -.00001954 00000-0 00000+0 0 9991 2 40482 32.0950 118.7739 8477888 27.5539 329.4057 0.28531793 11804 MMS 2 1 40483U 15011B 20359.39583333 -.00000873 00000-0 00000+0 0 9991 2 40483 31.9421 119.0520 8478594 26.9368 187.7615 0.28570892 11736 MMS 3 1 40484U 15011C 20359.39583333 -.00000874 00000-0 00000+0 0 9993 2 40484 31.9509 119.0403 8480379 26.9346 187.7683 0.28571045 11730 MMS 4 1 40485U 15011D 20359.39583333 -.00000873 00000-0 00000+0 0 9993 2 40485 31.9433 119.0523 8479943 26.9371 187.7469 0.28570861 11730